Home   Weather   Belém   Past weeks
Flag for Brazil

Past Weather in Belém, Pará, Brazil — Yesterday and Last 2 Weeks

Now
77 °F

Light rain. Passing clouds.


Feels Like: 78 °F
Forecast: 82 / 74 °F
Wind: 6 mph from East

Location: Belem Aeroporto

Current Time: Mar 23, 2019 at 11:13:56 pm

Latest Report: Mar 23, 2019 at 10:25 pm


Visibility: 2 mi

Pressure: 29.95 "Hg

Humidity: 94%

Dew Point: 75 °F

Location of BelémLocation

Past Weather in Belém — Graph

°F

Belém Temperature Yesterday

Maximum temperature yesterday: 81 °F (at 11:00 am)
Minimum temperature yesterday: 75 °F (at 12:00 am)
Average temperature yesterday: 77 °F

High & Low Weather Summary for the Past Weeks

 TemperatureHumidityPressure
High88 °F (Mar 15, 1:00 pm)100% (Mar 9, 3:00 am)29.98 "Hg (Mar 9, 3:00 am)
Low73 °F (Mar 10, 1:00 am)24% (Mar 21, 11:08 pm)29.77 "Hg (Mar 11, 5:00 pm)
Average78 °F90%29.87 "Hg
* Reported Mar 8 10:00 pm — Mar 23 10:00 pm, Belém. Weather by CustomWeather, © 2019

Note: Actual official high and low records may vary slightly from our data, if they occured in-between our weather recording intervals... More about our weather records

Advertising

Belém Weather History for the Previous 24 Hours

Scroll right to see more
 ConditionsComfort  
Time TempWeatherWind HumidityBarometerVisibility
10:00 pm
Sat, Mar 23
77 °FClear.5 mph94%29.92 "Hg10 mi
9:00 pm79 °FPartly cloudy.5 mph89%29.92 "HgN/A
8:00 pm79 °FPassing clouds.7 mph89%29.89 "HgN/A
7:00 pm81 °FPassing clouds.5 mph84%29.86 "HgN/A
6:00 pm81 °FPartly sunny.7 mph84%29.86 "HgN/A
5:00 pm82 °FPartly sunny.8 mph79%29.83 "HgN/A
4:00 pm82 °FPartly sunny.9 mph74%29.86 "HgN/A
3:00 pm82 °FPartly sunny.9 mph74%29.89 "HgN/A
2:00 pm82 °FBroken clouds.12 mph79%29.89 "HgN/A
1:00 pm81 °FPartly sunny.10 mph84%29.92 "HgN/A
12:00 pm81 °FPartly sunny.9 mph84%29.95 "HgN/A
11:00 am79 °FBroken clouds.14 mph89%29.98 "HgN/A
10:00 am79 °FPartly sunny.9 mph89%29.98 "HgN/A
9:00 am75 °FPartly sunny.5 mph94%29.98 "HgN/A
8:00 am73 °FLight rain. Fog.3 mph94%29.95 "Hg3 mi
7:00 am73 °FFog.5 mph94%29.92 "Hg3 mi
6:00 am73 °FLight rain. Mostly cloudy.9 mph100%29.92 "Hg2 mi
5:00 am75 °FLight rain. Passing clouds.10 mphN/AN/A1 mi
4:00 am77 °FMostly cloudy.5 mph89%29.89 "Hg4 mi
3:00 am77 °FPartly cloudy.8 mph89%29.89 "Hg4 mi
2:00 am77 °FMostly cloudy.No wind94%29.92 "Hg5 mi
1:00 am75 °FMostly cloudy.No wind100%29.95 "Hg5 mi
12:00 am77 °FClear.3 mph94%29.95 "Hg5 mi
11:30 pm
Fri, Mar 22
77 °FPassing clouds.5 mph94%29.95 "Hg5 mi
11:00 pm75 °FThunderstorms. Passing clouds.No wind100%N/A2 mi
Weather by CustomWeather, © 2019

See weather overview